Flag for U.S.A. Weather past 2 weeks in Provincetown, Massachusetts, U.S.A.

Now
70 °F

Sunny.


Feels Like: 70 °F
Forecast: 60 / 71 °F
Wind: 6 mph from South

Location: Provincetown Weather Reporting Station

Current Time: Jul 4, 2015 at 8:42:39 AM

Latest Report: Jul 4, 2015 at 8:15 AM


Visibility: 10 mi

Pressure: 30.01 "Hg

Humidity: 11%

Dew point: 12 °F

Location of ProvincetownLocation

Historic Weather in Provincetown — Graph

°F

Provincetown temperature yesterday

Maximum temperature yesterday: 82 °F (at 3:15 PM)
Minimum temperature yesterday: 61 °F (at 4:15 AM)
Average temperature yesterday: 69 °F

Past Weeks' High & Low Weather Summary

 TemperatureHumidityPressure
High82 °F (Jun 30, 12:35 PM)94% (Jun 19, 8:35 AM)30.20 "Hg (Jun 19, 8:35 AM)
Low45 °F (Jun 27, 2:55 AM)9% (Jun 30, 12:35 PM)29.61 "Hg (Jun 21, 4:35 PM)
Average66 °F42%29.92 "Hg
* Reported Jun 19 7:15 AM — Jul 4 7:35 AM, Provincetown, Weather by CustomWeather, © 2015

Note: Actual official high and low records may vary slightly from our data, if they occured in-between our weather recording intervals... More about our weather records

Advertising

Provincetown weather history for previous 24 hours

 ConditionsComfort  
Time TempWeatherWind HumidityBarometerVisibility
7:35 AM
Sat, Jul 4
64 °FSunny.3 mph11%30.01 "Hg10 mi
7:15 AM64 °FSunny.3 mph11%30.01 "Hg10 mi
6:55 AM63 °FSunny.No wind11%30.01 "Hg10 mi
6:35 AM61 °FSunny.No wind11%30.01 "Hg10 mi
6:15 AM61 °FSunny.5 mph11%30.02 "Hg10 mi
5:55 AM59 °FClear.No wind10%30.01 "Hg10 mi
5:35 AM57 °FClear.6 mph11%30.02 "Hg10 mi
5:15 AM57 °FClear.6 mph11%30.01 "Hg10 mi
4:55 AM59 °FClear.5 mph10%30.01 "Hg10 mi
4:35 AM61 °FClear.7 mph10%30.01 "Hg10 mi
4:15 AM61 °FClear.8 mph11%30.02 "Hg10 mi
3:55 AM61 °FClear.7 mph11%30.01 "Hg10 mi
3:35 AM61 °FClear.7 mph11%30.01 "Hg10 mi
3:15 AM61 °FClear.8 mph11%30.02 "Hg10 mi
2:55 AM61 °FClear.8 mph11%30.02 "Hg10 mi
2:35 AM61 °FClear.6 mph11%30.02 "Hg10 mi
2:15 AM61 °FClear.7 mph11%30.02 "Hg10 mi
1:55 AM61 °FClear.7 mph11%30.02 "Hg10 mi
1:35 AM61 °FClear.7 mph11%30.02 "Hg10 mi
1:15 AM61 °FClear.9 mph11%30.02 "Hg10 mi
12:55 AM61 °FClear.9 mph11%30.02 "Hg10 mi
12:35 AM63 °FClear.9 mph11%30.02 "Hg10 mi
12:15 AM63 °FClear.9 mph11%30.02 "Hg10 mi
11:35 PM
Fri, Jul 3
63 °FClear.8 mph11%30.02 "Hg10 mi
11:15 PM63 °FClear.9 mph11%30.01 "Hg10 mi
10:55 PM63 °FClear.9 mph11%30.01 "Hg10 mi
10:35 PM63 °FClear.10 mph11%30.01 "Hg10 mi
10:15 PM63 °FClear.10 mph11%30.01 "Hg10 mi
9:55 PM63 °FClear.10 mph11%30.01 "Hg10 mi
9:35 PM64 °FClear.9 mph11%30.01 "Hg10 mi
9:15 PM64 °FSunny.9 mph11%30.00 "Hg10 mi
8:55 PM64 °FSunny.9 mph11%29.99 "Hg10 mi
8:35 PM64 °FSunny.9 mph11%29.99 "Hg10 mi
8:15 PM66 °FSunny.8 mph10%29.99 "Hg10 mi
7:55 PM68 °FSunny.8 mph10%29.99 "Hg10 mi
7:35 PM70 °FSunny.8 mph11%29.98 "Hg10 mi
7:15 PM72 °FSunny.7 mph10%29.98 "Hg10 mi
6:55 PM73 °FSunny.9 mph11%29.97 "Hg10 mi
6:35 PM75 °FSunny.7 mph11%29.97 "Hg10 mi
5:55 PM77 °FSunny.9 mph11%29.96 "Hg10 mi
5:35 PM79 °FSunny.9 mph10%29.96 "Hg10 mi
5:15 PM81 °FSunny.6 mph10%29.97 "Hg10 mi
4:55 PM82 °FSunny.8 mph10%29.97 "Hg10 mi
4:35 PM82 °FSunny.5 mph10%29.96 "Hg10 mi
4:15 PM81 °FSunny.6 mph11%29.96 "Hg10 mi
3:55 PM82 °FSunny.6 mph10%29.96 "Hg10 mi
3:35 PM81 °FSunny.5 mph11%29.96 "Hg10 mi
3:15 PM82 °FSunny.7 mph10%29.97 "Hg10 mi
2:55 PM81 °FSunny.5 mph11%29.97 "Hg10 mi
2:35 PM79 °FSunny.3 mph11%29.97 "Hg10 mi
2:15 PM77 °FSunny.7 mph11%29.98 "Hg10 mi
1:55 PM75 °FSunny.5 mph10%29.98 "Hg10 mi
1:35 PM73 °FSunny.7 mph11%29.98 "Hg10 mi
1:15 PM73 °FSunny.6 mph10%29.98 "Hg10 mi
12:55 PM73 °FSunny.7 mph10%29.98 "Hg10 mi
12:35 PM72 °FSunny.7 mph11%29.97 "Hg10 mi
12:15 PM72 °FSunny.9 mph10%29.96 "Hg10 mi
11:55 AM72 °FSunny.8 mph10%29.96 "Hg10 mi
11:35 AM72 °FSunny.9 mph10%29.96 "Hg10 mi
11:15 AM72 °FSunny.7 mph10%29.96 "Hg10 mi
10:55 AM70 °FSunny.6 mph11%29.96 "Hg10 mi
10:35 AM70 °FSunny.8 mph11%29.96 "Hg10 mi
10:15 AM70 °FSunny.7 mph10%29.96 "Hg10 mi
9:55 AM70 °FSunny.7 mph10%29.96 "Hg10 mi
9:35 AM68 °FSunny.9 mph10%29.96 "Hg10 mi
9:15 AM66 °FSunny.7 mph11%29.95 "Hg10 mi
8:55 AM66 °FSunny.7 mph11%29.95 "Hg10 mi
8:35 AM66 °FSunny.8 mph10%29.95 "Hg10 mi
8:15 AM64 °FSunny.7 mph11%29.94 "Hg10 mi
Weather by CustomWeather, © 2015

See weather overviewHow to use our weather pages